General Aviation Weather

Text Reports

Enter one or more of the following location identifiers separated by a space:

Zip Code, Four-Character ICAO or Three-Character IATA airport codes.

METAR - Aviation Routine Weather Report
KOXB - Ocean City, Maryland
Updated at 1:53 AM GMT on September 28, 2016 (9:53 PM EDT):
METAR KOXB 280153Z AUTO 00000KT 10SM FEW024 SCT034 SCT070 20/18 A2994 RMK AO2 SLP138 T02000183 TSNO
TAF - Terminal Area Forecast
KOXB - Ocean City, Maryland
Updated at 1:53 AM GMT on September 28, 2016 (9:53 PM EDT):
No TAF is currently available for this location.
Decoded:
No decoded TAF is available.
PIREP - Pilot Weather Report
KOXB - Ocean City, Maryland
Updated at 1:53 AM GMT on September 28, 2016 (9:53 PM EDT):
No PIREP is currently available for this location.
AIRMET - Airmens Meteorological Information
KOXB - Ocean City, Maryland
Updated at 1:53 AM GMT on September 28, 2016 (9:53 PM EDT):
No AIRMET is currently available for this location.
SIGMET - Significant Meteorological Information
KOXB - Ocean City, Maryland
Updated at 1:53 AM GMT on September 28, 2016 (9:53 PM EDT):
No SIGMET is currently available for this location.
NOTAM - Notice to Airmen
KOXB - Ocean City, Maryland
Updated at 1:53 AM GMT on September 28, 2016 (9:53 PM EDT):
No NOTAM is currently available for this location.
Forecast Area
KOXB - Ocean City, Maryland
Updated at 1:53 AM GMT on September 28, 2016 (9:53 PM EDT):
No NOTAM is currently available for this location.
Aviation Weather Maps